This is the latest recevied weather packets stored in our database for station/object N1OTX. If no packets are shown the sender has not sent any weather packets the latest 10 day(s).
| Time | Temp. | Humidity | Pressure | Rain* | Wind** | Luminosity | Snow |
|---|---|---|---|---|---|---|---|
| 1777554931 | 8.33° C | 95% | 1008.2 hPa | 0 mm | - | 51 W/m² | - |
| 1777550430 | 7.78° C | 99% | 1008.4 hPa | 0 mm | - | 48 W/m² | - |
| 1777548930 | 7.78° C | 99% | 1008.4 hPa | 0 mm | - | 38 W/m² | - |
| 1777547431 | 7.78° C | 99% | 1007.9 hPa | 0 mm | - | 31 W/m² | - |
| 1777546831 | 7.78° C | 99% | 1007.8 hPa | 0 mm | - | 36 W/m² | - |
| 1777545651 | 7.78° C | 99% | 1007.8 hPa | 0.25 mm | - | 14 W/m² | - |
| 1777544450 | 7.78° C | 99% | 1008 hPa | 0.76 mm | - | 7 W/m² | - |
| 1777544150 | 7.78° C | 99% | 1008 hPa | 1.02 mm | - | 6 W/m² | - |
| 1777543830 | 7.22° C | 99% | 1008.1 hPa | 1.02 mm | - | 5 W/m² | - |
| 1777542629 | 7.22° C | 99% | 1008.2 hPa | 1.02 mm | - | 1 W/m² | - |
| 1777542031 | 7.22° C | 99% | 1008 hPa | 1.02 mm | - | 0 W/m² | - |
| 1777539030 | 7.22° C | 99% | 1008.2 hPa | 0.25 mm | - | 0 W/m² | - |
| 1777538149 | 7.22° C | 99% | 1008.6 hPa | 0 mm | - | 0 W/m² | - |
| 1777533031 | 7.22° C | 99% | 1009.8 hPa | 0 mm | - | 0 W/m² | - |
| 1777529750 | 7.22° C | 99% | 1009.9 hPa | 0 mm | - | 0 W/m² | - |
| 1777529430 | 7.22° C | 99% | 1009.9 hPa | 0 mm | - | 0 W/m² | - |
| 1777526431 | 7.22° C | 99% | 1010.6 hPa | 0 mm | - | 0 W/m² | - |
| 1777525530 | 7.22° C | 99% | 1010.7 hPa | 0 mm | - | 0 W/m² | - |
| 1777524331 | 7.22° C | 99% | 1010.9 hPa | 0 mm | - | 0 W/m² | - |
| 1777523752 | 7.22° C | 99% | 1010.9 hPa | 0 mm | - | 0 W/m² | - |
| 1777518331 | 7.22° C | 98% | 1011.9 hPa | 0 mm | - | 0 W/m² | - |
| 1777516530 | 7.22° C | 97% | 1012.5 hPa | 0 mm | - | 0 W/m² | - |
| 1777515631 | 7.22° C | 96% | 1012.4 hPa | 0 mm | - | 0 W/m² | - |
| 1777513530 | 7.22° C | 94% | 1013 hPa | 0 mm | - | 0 W/m² | - |
| 1777512630 | 7.78° C | 92% | 1013.1 hPa | 0 mm | - | 0 W/m² | - |
* Rain latest hour (hover to see other rain measurements)
** Current wind speed in m/s (hover to see current wind gust speed)